📊 Raw Sensor Data

Showing records 38726 to 38750 of 84,934 total

ID Distance (ft) Battery V Battery A Int Temp (°F) Int Humid (%) Ext Temp (°F) Solar V RSSI SNR Time Stamp
46221 15.3 4.03 -5 68 50 69 0.00 -72 8 07/13/2025 09:45 PM
46220 15.3 3.97 -5 69 51 70 0.00 -72 8 07/13/2025 09:30 PM
46219 15.3 3.97 -5 70 52 70 0.00 -73 8 07/13/2025 09:15 PM
46218 15.3 4.03 -5 72 54 71 0.00 -73 7 07/13/2025 09:00 PM
46217 15.3 3.97 -5 74 56 72 0.80 -72 8 07/13/2025 08:45 PM
46216 15.3 4.02 -10 77 57 73 4.30 -74 7 07/13/2025 08:30 PM
46215 15.4 3.98 0 83 55 77 4.50 -75 8 07/13/2025 08:15 PM
46214 15.4 4.05 0 87 54 81 4.50 -75 8 07/13/2025 08:00 PM
46213 15.4 4.06 6 91 54 84 4.60 -76 8 07/13/2025 07:45 PM
46212 15.4 4.06 10 94 53 86 4.50 -74 8 07/13/2025 07:30 PM
46211 15.5 4.07 -5 97 52 89 4.60 -75 8 07/13/2025 07:15 PM
46210 15.5 4.10 10 98 52 89 4.50 -73 8 07/13/2025 07:00 PM
46209 15.5 4.09 39 100 51 91 4.50 -72 7 07/13/2025 06:45 PM
46208 15.5 4.02 0 102 50 92 5.10 -74 8 07/13/2025 06:30 PM
46207 15.5 4.02 0 102 50 95 5.10 -72 8 07/13/2025 06:15 PM
46206 15.6 4.02 0 103 50 94 5.10 -77 8 07/13/2025 06:00 PM
46205 15.5 4.02 0 103 49 97 5.10 -73 8 07/13/2025 05:45 PM
46204 15.5 4.02 0 104 48 95 5.10 -74 8 07/13/2025 05:30 PM
46203 15.5 4.02 0 104 48 94 5.10 -73 9 07/13/2025 05:15 PM
46202 15.5 4.11 0 105 47 96 5.10 -74 8 07/13/2025 05:00 PM
46201 15.5 4.01 0 106 46 96 5.10 -73 8 07/13/2025 04:45 PM
46200 15.5 4.01 0 106 46 96 5.10 -74 8 07/13/2025 04:30 PM
46199 15.5 4.09 0 106 45 98 5.10 -73 8 07/13/2025 04:15 PM
46198 15.5 4.01 0 106 45 93 5.10 -72 6 07/13/2025 04:00 PM
46197 15.5 4.14 0 105 43 98 5.10 -75 8 07/13/2025 03:30 PM